[[{"header":{"parameterUnit":"m.s-1","parameterCategory":2,"la1":30.2992,"la2":30.254,"lo1":-89.0895,"lo2":-89.0443,"dy":0.0025,"dx":0.0025,"nx":19,"ny":19,"refTime":"2026-04-26T21:00:00:Z","depth":"0","parameterNumber":2,"parameterNumberName":"U-component_of_CURRENTS"},"data":[0,0,0,-0.0192,-0.0192,-0.0234,-0.0235,-0.0346,-0.0346,0,0,0,0,0,0,0,0,0,0,0,-0.0192,-0.0193,-0.0192,-0.0192,-0.0234,-0.0235,-0.0345,-0.0346,0,0,0,0,0,0,0,0,0,0,0,-0.0192,-0.0193,-0.0193,-0.0192,-0.0234,-0.0235,-0.0345,-0.0305,0,0,0,0,0,0,0,0,0,0,-0.0259,-0.0275,-0.0193,-0.0193,-0.0192,-0.0234,-0.0235,-0.0303,-0.0308,-0.0334,0,-0.0334,0,-0.0326,-0.0353,-0.0353,0,0,0,-0.0217,-0.0271,-0.0243,-0.0193,-0.0192,-0.0234,-0.0222,-0.0305,-0.0311,-0.0341,-0.0336,-0.0339,-0.0328,-0.0353,-0.0354,-0.0477,-0.0477,0,0,-0.0215,-0.0243,-0.0239,-0.0246,-0.0195,-0.0221,-0.0223,-0.0308,-0.0336,-0.0336,-0.0341,-0.033,-0.0354,-0.0355,-0.0476,-0.0477,0,0,0,-0.0191,-0.0241,-0.0212,-0.0242,-0.0236,-0.0221,-0.0224,-0.0333,-0.0311,-0.0342,-0.0331,-0.0355,-0.0356,-0.0475,-0.0476,-0.0516,0,0,0,-0.0191,-0.0224,-0.021,-0.0234,-0.0233,-0.0284,-0.0248,-0.0306,-0.0315,-0.033,-0.0355,-0.0357,-0.0475,-0.0476,-0.0513,-0.0511,0,0,0,-0.0192,-0.0226,-0.0218,-0.0234,-0.0234,-0.0282,-0.0268,-0.0308,-0.0307,-0.0353,-0.0357,-0.0474,-0.0476,-0.0511,-0.0508,-0.0554,0,0,0,-0.0235,-0.0243,-0.022,-0.0246,-0.0233,-0.028,-0.0268,-0.0327,-0.0372,-0.0355,-0.0475,-0.0476,-0.051,-0.0506,-0.0552,-0.0584,-0.0597,0,0,-0.0261,-0.0248,-0.0261,-0.0239,-0.0276,-0.0276,-0.0359,-0.0403,-0.0403,-0.0453,-0.0456,-0.0514,-0.0508,-0.0553,-0.0671,-0.0682,0,0,0,-0.028,-0.0285,-0.0296,-0.0316,-0.0336,-0.0375,-0.0419,-0.0441,-0.0491,-0.0428,-0.0534,-0.0528,-0.0556,-0.0572,-0.0581,-0.0582,-0.0483,-0.0483,-0.0483,-0.0348,-0.0341,-0.0379,-0.0378,-0.0419,-0.0467,-0.0511,-0.0549,-0.055,-0.0575,-0.0576,-0.0656,-0.0675,-0.0681,-0.0683,-0.0605,-0.0605,-0.0605,-0.0605,-0.0392,-0.0407,-0.0432,-0.0455,-0.0486,-0.0553,-0.061,-0.0616,-0.0671,-0.0639,-0.0665,-0.0631,-0.0693,-0.0691,-0.0608,-0.0607,-0.0607,-0.0607,-0.0607,-0.0447,-0.0443,-0.0462,-0.0506,-0.0556,-0.0592,-0.0668,-0.0687,-0.07,-0.0723,-0.0745,-0.0745,-0.0729,-0.0741,-0.0741,-0.0741,-0.0741,-0.0741,-0.0742,-0.0471,-0.0488,-0.0511,-0.0552,-0.0585,-0.0637,-0.0692,-0.0739,-0.0781,-0.0784,-0.0785,-0.0766,-0.0697,-0.0675,-0.0745,-0.0744,-0.0744,-0.0744,-0.0743,-0.0518,-0.0508,-0.0539,-0.0574,-0.0629,-0.0695,-0.0755,-0.0841,-0.0872,-0.0904,-0.0875,-0.0831,-0.0819,-0.0812,-0.0794,-0.089,-0.089,-0.089,-0.089,-0.053,-0.0536,-0.0548,-0.0601,-0.0661,-0.0718,-0.0818,-0.0887,-0.0932,-0.0932,-0.0936,-0.0914,-0.0908,-0.0899,-0.089,-0.0872,-0.0986,-0.0986,-0.0986,-0.0562,-0.0545,-0.0579,-0.0606,-0.0672,-0.0734,-0.0819,-0.089,-0.0931,-0.0988,-0.0934,-0.093,-0.0892,-0.0882,-0.0861,-0.0848,-0.0815,0,0]},{"header":{"parameterUnit":"m.s-1","parameterCategory":2,"la1":30.2992,"la2":30.254,"lo1":-89.0895,"lo2":-89.0443,"dy":0.0025,"dx":0.0025,"nx":19,"ny":19,"refTime":"2026-04-26T21:00:00:Z","depth":"0","parameterNumber":3,"parameterNumberName":"V-component_of_CURRENTS"},"data":[0,0,0,0.1054,0.1054,0.1197,0.1198,0.1375,0.1376,0,0,0,0,0,0,0,0,0,0,0,0.1031,0.1031,0.1054,0.1054,0.1196,0.1198,0.1375,0.1376,0,0,0,0,0,0,0,0,0,0,0,0.1032,0.1031,0.1031,0.1054,0.1196,0.1198,0.1375,0.1288,0,0,0,0,0,0,0,0,0,0,0.1158,0.1097,0.1031,0.1031,0.1054,0.1196,0.1199,0.1284,0.1293,0.1284,0,0.1272,0,0.1278,0.138,0.138,0,0,0,0.1134,0.109,0.1119,0.1031,0.1054,0.1195,0.1155,0.129,0.1299,0.1295,0.1274,0.128,0.1281,0.138,0.1381,0.1403,0.1402,0,0,0.1126,0.1078,0.1112,0.1123,0.1045,0.115,0.1158,0.1297,0.1291,0.1275,0.1284,0.1284,0.1381,0.1381,0.1403,0.1402,0,0,0,0.1049,0.1072,0.1101,0.1117,0.1115,0.1152,0.1162,0.1287,0.1292,0.1286,0.1286,0.1381,0.1382,0.1403,0.1403,0.135,0,0,0,0.1049,0.1021,0.1096,0.1072,0.1111,0.1196,0.1148,0.1285,0.1299,0.1285,0.1381,0.1383,0.1403,0.1403,0.1352,0.1291,0,0,0,0.1033,0.102,0.1021,0.1068,0.109,0.1194,0.1213,0.129,0.1294,0.138,0.1383,0.1404,0.1403,0.1353,0.1296,0.1257,0,0,0,0.1006,0.0978,0.1019,0.0987,0.1088,0.1147,0.1213,0.1268,0.1332,0.1382,0.1403,0.1403,0.1354,0.1299,0.126,0.1156,0.1134,0,0,0.0958,0.0971,0.0953,0.0992,0.1017,0.1136,0.1195,0.1293,0.1323,0.1372,0.1373,0.1351,0.1296,0.1257,0.1122,0.1101,0,0,0,0.093,0.0924,0.0937,0.0954,0.1014,0.1095,0.1211,0.1258,0.1316,0.1341,0.1354,0.132,0.1298,0.1242,0.1225,0.116,0.14,0.14,0.14,0.0845,0.0878,0.0873,0.0928,0.0971,0.1085,0.1152,0.1233,0.1287,0.1285,0.1281,0.1214,0.1154,0.1141,0.1075,0.1305,0.1304,0.1304,0.1304,0.0801,0.0802,0.0846,0.0856,0.0927,0.0986,0.1099,0.1146,0.1191,0.1235,0.1217,0.1192,0.1119,0.1056,0.1301,0.1301,0.1302,0.1302,0.1302,0.0794,0.0792,0.0786,0.0804,0.0829,0.0921,0.0948,0.1026,0.1096,0.109,0.1033,0.1033,0.0973,0.1083,0.1083,0.1083,0.1082,0.1082,0.1082,0.0771,0.0766,0.0742,0.0762,0.0762,0.0778,0.0838,0.0858,0.088,0.0934,0.0934,0.0925,0.1146,0.1149,0.1075,0.1076,0.1077,0.1078,0.1078,0.0737,0.0732,0.0688,0.0678,0.0659,0.0619,0.069,0.066,0.0686,0.0671,0.0687,0.0866,0.0865,0.0878,0.0875,0.0734,0.0734,0.0734,0.0734,0.0698,0.0706,0.0591,0.0555,0.054,0.0538,0.0421,0.0407,0.0447,0.0433,0.051,0.0537,0.0554,0.0538,0.0559,0.0552,0.0332,0.0331,0.0331,0.064,0.0615,0.0519,0.0487,0.0476,0.0408,0.0239,0.0169,0.0234,0.0313,0.0435,0.0452,0.0498,0.053,0.0519,0.0553,0.0547,0,0]}],[{"header":{"parameterUnit":"m.s-1","parameterCategory":2,"la1":30.2992,"la2":30.254,"lo1":-89.0895,"lo2":-89.0443,"dy":0.0025,"dx":0.0025,"nx":19,"ny":19,"refTime":"2026-04-26T21:00:00:Z","depth":"2","parameterNumber":2,"parameterNumberName":"U-component_of_CURRENTS"},"data":[0,0,0,-0.0414,-0.0414,-0.045,-0.045,-0.05,-0.0501,0,0,0,0,0,0,0,0,0,0,0,-0.0385,-0.0384,-0.0414,-0.0414,-0.045,-0.045,-0.05,-0.0501,0,0,0,0,0,0,0,0,0,0,0,-0.0385,-0.0384,-0.0384,-0.0414,-0.045,-0.045,-0.05,-0.0475,0,0,0,0,0,0,0,0,0,0,-0.0441,-0.0403,-0.0384,-0.0384,-0.0415,-0.045,-0.045,-0.0473,-0.0476,-0.0483,0,-0.0467,0,-0.0488,-0.0503,-0.0503,0,0,0,-0.0424,-0.0401,-0.0417,-0.0384,-0.0415,-0.045,-0.0437,-0.0475,-0.0478,-0.0486,-0.0468,-0.047,-0.0489,-0.0504,-0.0504,-0.0506,-0.0506,0,0,-0.0422,-0.0392,-0.0414,-0.0418,-0.0397,-0.0435,-0.0438,-0.0477,-0.0465,-0.0468,-0.0472,-0.049,-0.0504,-0.0504,-0.0506,-0.0506,0,0,0,-0.041,-0.039,-0.0405,-0.0415,-0.0423,-0.0436,-0.0439,-0.0463,-0.0469,-0.0473,-0.049,-0.0504,-0.0504,-0.0507,-0.0506,-0.0488,0,0,0,-0.0409,-0.0383,-0.0403,-0.0386,-0.0421,-0.0442,-0.0423,-0.0466,-0.0471,-0.049,-0.0504,-0.0505,-0.0507,-0.0507,-0.049,-0.0483,0,0,0,-0.0388,-0.0381,-0.0378,-0.0384,-0.0398,-0.0442,-0.045,-0.0467,-0.0482,-0.0503,-0.0505,-0.0507,-0.0507,-0.0491,-0.0485,-0.0466,0,0,0,-0.0368,-0.0349,-0.0376,-0.0365,-0.0398,-0.0425,-0.045,-0.0472,-0.0487,-0.0504,-0.0507,-0.0506,-0.0491,-0.0486,-0.0467,-0.0531,-0.0531,0,0,-0.0339,-0.0344,-0.0343,-0.037,-0.0416,-0.0422,-0.0441,-0.0471,-0.048,-0.0497,-0.0497,-0.0489,-0.0485,-0.0466,-0.0495,-0.0497,0,0,0,-0.0334,-0.034,-0.0358,-0.0385,-0.0409,-0.0428,-0.0452,-0.0455,-0.0466,-0.0484,-0.0482,-0.0479,-0.0468,-0.0509,-0.051,-0.0503,-0.0504,-0.0504,-0.0504,-0.0301,-0.0333,-0.0348,-0.0389,-0.0403,-0.0431,-0.0435,-0.0436,-0.0454,-0.0446,-0.0459,-0.0425,-0.0468,-0.047,-0.0452,-0.0452,-0.0452,-0.0451,-0.0451,-0.0303,-0.032,-0.0347,-0.0377,-0.0398,-0.0407,-0.0413,-0.0417,-0.0416,-0.043,-0.042,-0.0481,-0.047,-0.045,-0.045,-0.045,-0.0451,-0.0451,-0.0451,-0.0311,-0.0318,-0.0328,-0.036,-0.0375,-0.0395,-0.0397,-0.0393,-0.0395,-0.039,-0.0433,-0.0435,-0.0417,-0.0383,-0.0383,-0.0383,-0.0383,-0.0382,-0.0382,-0.0314,-0.032,-0.033,-0.0352,-0.0367,-0.0378,-0.038,-0.0383,-0.0399,-0.0418,-0.0419,-0.0402,-0.0404,-0.0412,-0.0381,-0.0381,-0.0381,-0.0381,-0.0381,-0.0345,-0.0328,-0.0343,-0.0351,-0.0373,-0.0408,-0.04,-0.0439,-0.0423,-0.0445,-0.0434,-0.0433,-0.0445,-0.0446,-0.0455,-0.0436,-0.0436,-0.0436,-0.0436,-0.0359,-0.0353,-0.0354,-0.0357,-0.0375,-0.0418,-0.0531,-0.0605,-0.0577,-0.0559,-0.0554,-0.0593,-0.0588,-0.061,-0.0607,-0.062,-0.0644,-0.0644,-0.0644,-0.0384,-0.0371,-0.037,-0.0356,-0.0376,-0.0453,-0.064,-0.0819,-0.0749,-0.0652,-0.0588,-0.0451,-0.0495,-0.0493,-0.0516,-0.0515,-0.0533,0,0]},{"header":{"parameterUnit":"m.s-1","parameterCategory":2,"la1":30.2992,"la2":30.254,"lo1":-89.0895,"lo2":-89.0443,"dy":0.0025,"dx":0.0025,"nx":19,"ny":19,"refTime":"2026-04-26T21:00:00:Z","depth":"2","parameterNumber":3,"parameterNumberName":"V-component_of_CURRENTS"},"data":[0,0,0,-0.0702,-0.0699,-0.0671,-0.0672,-0.0678,-0.0678,0,0,0,0,0,0,0,0,0,0,0,-0.0692,-0.069,-0.0702,-0.0699,-0.0671,-0.0672,-0.0678,-0.0678,0,0,0,0,0,0,0,0,0,0,0,-0.0693,-0.0691,-0.0688,-0.0699,-0.0671,-0.0672,-0.0678,-0.0702,0,0,0,0,0,0,0,0,0,0,-0.0729,-0.0723,-0.0691,-0.0688,-0.0698,-0.0671,-0.0672,-0.0703,-0.07,-0.0686,0,-0.0622,0,-0.0633,-0.0674,-0.0674,0,0,0,-0.0752,-0.0725,-0.068,-0.0688,-0.0697,-0.0671,-0.0699,-0.0702,-0.0699,-0.0683,-0.0623,-0.0623,-0.0633,-0.0674,-0.0674,-0.0654,-0.0654,0,0,-0.0754,-0.0741,-0.0681,-0.0675,-0.0611,-0.0699,-0.0697,-0.07,-0.0686,-0.0623,-0.0624,-0.0633,-0.0674,-0.0673,-0.0654,-0.0654,0,0,0,-0.0722,-0.0741,-0.0698,-0.0675,-0.0656,-0.0697,-0.0695,-0.0687,-0.0658,-0.0624,-0.0634,-0.0673,-0.0673,-0.0654,-0.0654,-0.0672,0,0,0,-0.0726,-0.0719,-0.0697,-0.0698,-0.0654,-0.0672,-0.0682,-0.0659,-0.066,-0.0633,-0.0673,-0.0672,-0.0653,-0.0654,-0.0671,-0.0657,0,0,0,-0.0708,-0.072,-0.0683,-0.0695,-0.0657,-0.0672,-0.0649,-0.066,-0.0663,-0.0674,-0.0672,-0.0653,-0.0654,-0.067,-0.0656,-0.0621,0,0,0,-0.0747,-0.071,-0.0682,-0.066,-0.0656,-0.0678,-0.065,-0.0682,-0.0696,-0.0673,-0.0653,-0.0654,-0.067,-0.0656,-0.0621,-0.0475,-0.0462,0,0,-0.0742,-0.0709,-0.0705,-0.068,-0.0706,-0.0691,-0.0725,-0.0717,-0.0696,-0.0664,-0.0663,-0.0671,-0.0656,-0.0621,-0.0499,-0.0485,0,0,0,-0.0736,-0.0729,-0.0734,-0.0727,-0.0724,-0.0729,-0.0731,-0.0714,-0.0696,-0.069,-0.0675,-0.0664,-0.0641,-0.0554,-0.0544,-0.0656,-0.0656,-0.0656,-0.0656,-0.0728,-0.0745,-0.0763,-0.0774,-0.0778,-0.0767,-0.0759,-0.0728,-0.0717,-0.0706,-0.0682,-0.067,-0.058,-0.057,-0.0698,-0.0698,-0.0698,-0.0698,-0.0698,-0.078,-0.0808,-0.0799,-0.0828,-0.0794,-0.0806,-0.0762,-0.074,-0.069,-0.0696,-0.0673,-0.0582,-0.0559,-0.0699,-0.0699,-0.0699,-0.0699,-0.0699,-0.0699,-0.0863,-0.0869,-0.0864,-0.0872,-0.0851,-0.0815,-0.0767,-0.0735,-0.069,-0.0671,-0.0548,-0.0546,-0.0653,-0.0657,-0.0657,-0.0657,-0.0657,-0.0657,-0.0657,-0.093,-0.0931,-0.0921,-0.0919,-0.089,-0.0843,-0.0769,-0.0699,-0.0579,-0.0533,-0.0531,-0.0655,-0.0657,-0.065,-0.0654,-0.0654,-0.0655,-0.0655,-0.0655,-0.1018,-0.0976,-0.0994,-0.0959,-0.0887,-0.0834,-0.0751,-0.0536,-0.0462,-0.0358,-0.044,-0.0446,-0.0413,-0.042,-0.0406,-0.0346,-0.0346,-0.0346,-0.0346,-0.1019,-0.102,-0.0979,-0.0943,-0.0883,-0.0813,-0.0635,-0.043,-0.0272,-0.0197,-0.0204,-0.0199,-0.0213,-0.017,-0.0182,-0.0165,-0.0043,-0.0043,-0.0042,-0.0991,-0.0991,-0.096,-0.0937,-0.0865,-0.0771,-0.0611,-0.0297,0.0018,-0.0038,-0.023,-0.0311,-0.0321,-0.0337,-0.0286,-0.0301,-0.0279,0,0]}],[{"header":{"parameterUnit":"m.s-1","parameterCategory":2,"la1":30.2992,"la2":30.254,"lo1":-89.0895,"lo2":-89.0443,"dy":0.0025,"dx":0.0025,"nx":19,"ny":19,"refTime":"2026-04-26T21:00:00:Z","depth":"4","parameterNumber":2,"parameterNumberName":"U-component_of_CURRENTS"},"data":[0,0,0,-0.0514,-0.0517,-0.0648,-0.0648,-0.0746,-0.0747,0,0,0,0,0,0,0,0,0,0,0,-0.0444,-0.0445,-0.0514,-0.0517,-0.0648,-0.0648,-0.0746,-0.0747,0,0,0,0,0,0,0,0,0,0,0,-0.0444,-0.0445,-0.0445,-0.0518,-0.0648,-0.0648,-0.0746,-0.0663,0,0,0,0,0,0,0,0,0,0,-0.0544,-0.0519,-0.0444,-0.0445,-0.0519,-0.0648,-0.0648,-0.066,-0.0668,-0.0669,0,-0.0678,0,-0.0727,-0.0752,-0.0752,0,0,0,-0.0512,-0.0512,-0.0525,-0.0445,-0.052,-0.0648,-0.0588,-0.0665,-0.0674,-0.0679,-0.068,-0.0685,-0.0728,-0.0753,-0.0753,-0.0829,-0.0829,0,0,-0.0505,-0.0493,-0.0519,-0.0531,-0.0539,-0.0583,-0.0592,-0.0671,-0.0686,-0.068,-0.0688,-0.073,-0.0753,-0.0754,-0.0829,-0.0829,0,0,0,-0.0488,-0.0488,-0.0501,-0.0525,-0.0562,-0.0587,-0.0597,-0.0683,-0.068,-0.0689,-0.0731,-0.0754,-0.0755,-0.0828,-0.0829,-0.0888,0,0,0,-0.0483,-0.0478,-0.0497,-0.0495,-0.056,-0.0642,-0.0606,-0.0674,-0.0686,-0.0731,-0.0754,-0.0755,-0.0828,-0.0829,-0.0886,-0.0882,0,0,0,-0.0441,-0.0476,-0.048,-0.0493,-0.0553,-0.0642,-0.0646,-0.0678,-0.0711,-0.0752,-0.0756,-0.0828,-0.0829,-0.0884,-0.0879,-0.0856,0,0,0,-0.0438,-0.0439,-0.0479,-0.0497,-0.0551,-0.061,-0.0646,-0.0733,-0.0774,-0.0754,-0.0828,-0.0829,-0.0883,-0.0878,-0.0855,-0.0668,0,0,0,-0.043,-0.0438,-0.0445,-0.0484,-0.0521,-0.0592,-0.0662,-0.0752,-0.0775,-0.0796,-0.0798,-0.0887,-0.0879,-0.0856,-0.0701,0,0,0,0,-0.0437,-0.044,-0.0457,-0.0496,-0.0546,-0.0633,-0.0717,-0.0756,-0.0838,-0.0803,-0.0881,-0.0873,-0.0857,-0.0746,-0.0831,-0.0831,-0.0831,-0.0831,-0.0831,-0.04,-0.0427,-0.0449,-0.0494,-0.0551,-0.0678,-0.074,-0.0808,-0.084,-0.0892,-0.0919,-0.0934,-0.0822,-0.093,-0.0931,-0.0931,-0.0931,-0.0931,-0.0932,-0.038,-0.0397,-0.0455,-0.0494,-0.0584,-0.068,-0.0793,-0.0857,-0.0911,-0.0941,-0.0923,-0.0814,-0.0937,-0.0936,-0.0935,-0.0935,-0.0934,-0.0934,-0.0934,-0.0358,-0.0373,-0.0402,-0.0463,-0.0598,-0.0732,-0.0797,-0.0922,-0.0952,-0.0969,-0.0834,-0.0947,-0.0942,-0.0981,-0.0981,-0.0981,-0.0981,-0.0981,-0.0981,-0.0328,-0.0353,-0.037,-0.0458,-0.0516,-0.0651,-0.0821,-0.0801,-0.0889,-0.0848,-0.0991,-0.0949,-0.0948,-0.0942,-0.0979,-0.098,-0.098,-0.098,-0.098,-0.0311,-0.032,-0.0327,-0.0346,-0.0438,-0.0515,-0.065,-0.0658,-0.062,-0.0577,-0.0756,-0.0767,-0.0711,-0.0714,-0.0699,-0.0665,-0.0663,-0.0661,0,-0.0298,-0.0302,-0.0304,-0.0299,-0.0301,-0.0437,-0.034,-0.0368,-0.0487,-0.0529,-0.0603,-0.0809,-0.0816,-0.0754,-0.0754,-0.0735,0,0,0,-0.0289,-0.0292,-0.0282,-0.0279,-0.0273,-0.0292,-0.034,-0.0343,-0.0499,-0.0376,-0.0602,-0.0617,-0.0675,-0.0975,-0.0915,-0.0913,-0.09,0,0]},{"header":{"parameterUnit":"m.s-1","parameterCategory":2,"la1":30.2992,"la2":30.254,"lo1":-89.0895,"lo2":-89.0443,"dy":0.0025,"dx":0.0025,"nx":19,"ny":19,"refTime":"2026-04-26T21:00:00:Z","depth":"4","parameterNumber":3,"parameterNumberName":"V-component_of_CURRENTS"},"data":[0,0,0,-0.0216,-0.0216,-0.023,-0.023,-0.0272,-0.0272,0,0,0,0,0,0,0,0,0,0,0,-0.0211,-0.0211,-0.0216,-0.0216,-0.023,-0.023,-0.0272,-0.0272,0,0,0,0,0,0,0,0,0,0,0,-0.0211,-0.0211,-0.0211,-0.0216,-0.023,-0.023,-0.0271,-0.0256,0,0,0,0,0,0,0,0,0,0,-0.0241,-0.0237,-0.0211,-0.0211,-0.0216,-0.023,-0.023,-0.0255,-0.0257,-0.0271,0,-0.027,0,-0.0271,-0.0275,-0.0275,0,0,0,-0.022,-0.0235,-0.0232,-0.0211,-0.0216,-0.0229,-0.0225,-0.0256,-0.0258,-0.0274,-0.0271,-0.0272,-0.0272,-0.0275,-0.0276,-0.0322,-0.0323,0,0,-0.022,-0.0222,-0.0231,-0.0234,-0.0216,-0.0224,-0.0225,-0.0257,-0.0262,-0.0271,-0.0273,-0.0272,-0.0276,-0.0276,-0.0322,-0.0323,0,0,0,-0.0215,-0.0221,-0.0218,-0.0232,-0.0232,-0.0225,-0.0226,-0.0261,-0.0258,-0.0273,-0.0273,-0.0276,-0.0276,-0.0322,-0.0322,-0.0294,0,0,0,-0.0215,-0.0218,-0.0217,-0.022,-0.0231,-0.0245,-0.0229,-0.0255,-0.0259,-0.0273,-0.0276,-0.0277,-0.0322,-0.0322,-0.0295,-0.029,0,0,0,-0.0211,-0.0218,-0.0217,-0.022,-0.0223,-0.0244,-0.0243,-0.0256,-0.0259,-0.0275,-0.0277,-0.0322,-0.0322,-0.0295,-0.0291,-0.0282,0,0,0,-0.0217,-0.0221,-0.0217,-0.0226,-0.0223,-0.0252,-0.0243,-0.0269,-0.0286,-0.0276,-0.0322,-0.0322,-0.0295,-0.0291,-0.0282,-0.0287,0,0,0,-0.0226,-0.0222,-0.0228,-0.0224,-0.0255,-0.0251,-0.0289,-0.0303,-0.0295,-0.0313,-0.0314,-0.0295,-0.0291,-0.0282,-0.0313,0,0,0,0,-0.0233,-0.0239,-0.0247,-0.0263,-0.028,-0.0306,-0.032,-0.0316,-0.0309,-0.0305,-0.0311,-0.031,-0.0305,-0.031,-0.0324,-0.0324,-0.0324,-0.0324,-0.0324,-0.0256,-0.0262,-0.0287,-0.0303,-0.0328,-0.0351,-0.0358,-0.0356,-0.0338,-0.0325,-0.0299,-0.0291,-0.0297,-0.0309,-0.0309,-0.0309,-0.0309,-0.0309,-0.0309,-0.0281,-0.0298,-0.0319,-0.0347,-0.0375,-0.041,-0.0395,-0.0368,-0.0324,-0.0308,-0.0304,-0.0296,-0.0307,-0.0307,-0.0307,-0.0308,-0.0308,-0.0308,-0.0308,-0.03,-0.0311,-0.0328,-0.0367,-0.0416,-0.0428,-0.0417,-0.0355,-0.0309,-0.0283,-0.0271,-0.0279,-0.0267,-0.0256,-0.0255,-0.0255,-0.0255,-0.0255,-0.0255,-0.0316,-0.0331,-0.0353,-0.0393,-0.0419,-0.0428,-0.0396,-0.0369,-0.03,-0.0251,-0.0255,-0.0274,-0.0275,-0.0265,-0.0254,-0.0255,-0.0255,-0.0255,-0.0255,-0.0347,-0.0339,-0.0363,-0.0384,-0.0432,-0.0433,-0.041,-0.0353,-0.0313,-0.028,-0.0247,-0.0248,-0.026,-0.0262,-0.0252,-0.0236,-0.0236,-0.0236,0,-0.0362,-0.036,-0.0387,-0.041,-0.0425,-0.044,-0.0388,-0.037,-0.0306,-0.0277,-0.0324,-0.0289,-0.0288,-0.0306,-0.0308,-0.0299,0,0,0,-0.0385,-0.0384,-0.0409,-0.0422,-0.0437,-0.0396,-0.0378,-0.0353,-0.0297,-0.0298,-0.0237,-0.0237,-0.0328,-0.0252,-0.0272,-0.0274,-0.0259,0,0]}]]